Location: Unspecified
(0.0000°N, 0.0000°E)
Time: 07:50:07
(UTC+00:00)

deb r/b Ablestar - Pass Details

Date: 07 October 2024
Orbit: 819 x 956 km, 66.7° (Epoch: 08 November)

Event Time Altitude Azimuth Distance (km) Brightness Sun altitude
Rises 18:58:54 0° 239° (WSW) 3,367 ? -17.7°
Reaches altitude 10° 19:03:07 10° 269° (W) 2,414 ? -18.8°
Maximum altitude 19:05:04 12° 290° (WNW) 2,277 ? -19.3°
Drops below altitude 10° 19:07:02 10° 312° (NW) 2,404 ? -19.7°
Sets 19:11:15 0° 342° (NNW) 3,334 ? -20.8°
